Theta_e
320 321 323 323 322 323 322 321 322 322 322 321 321 320 320 320 321 320 319 320 320 321 324 324 324 322 323 326 324 324 322 321
320 321 322 323 323 323 322 320 321 323 324 322 320 320 320 320 320 319 319 320 321 323 323 324 324 323 323 324 326 325 323 322
320 320 321 322 322 322 322 320 320 323 324 322 320 321 321 321 320 320 322 324 325 326 323 323 321 319 315 317 325 321 320 321
320 321 322 322 322 322 321 319 320 324 324 325 326 325 322 321 320 323 322 325 326 326 321 320 317 317 303 308 317 320 323 323
320 321 322 322 322 322 318 319 320 323 327 328 326 323 322 321 320 321 324 322 324 322 317 317 315 312 300 304 309 320 324 323
320 322 322 322 321 319 317 318 322 324 327 327 324 323 322 321 319 319 318 320 322 317 315 314 314 311 301 302 308 324 323 323
321 323 322 321 318 317 318 320 322 325 325 324 325 323 321 320 319 318 317 318 317 315 315 313 313 315 301 302 314 322 322 322
321 322 322 319 316 317 319 319 321 323 325 324 324 322 322 321 319 318 318 318 318 318 315 313 310 316 300 301 314 323 321 321
320 321 319 319 316 317 318 319 320 323 326 324 323 321 322 322 319 319 319 320 320 317 316 313 313 313 311 301 306 322 321 321
321 320 318 315 317 317 316 318 322 322 323 323 321 321 324 322 320 319 319 319 317 315 314 313 313 317 305 300 301 309 312 321
321 320 315 316 317 317 314 317 315 320 321 320 321 322 322 322 320 318 317 317 317 318 318 317 314 317 315 300 299 301 304 319
319 316 315 314 315 316 317 313 316 321 320 320 322 322 320 322 322 320 318 317 317 318 317 316 312 316 317 315 312 310 304 308
319 317 315 315 315 315 314 314 320 319 320 322 322 321 321 320 318 317 319 318 318 318 316 315 314 317 316 309 311 315 317 310
319 318 317 317 316 315 314 317 322 321 320 322 323 322 321 319 315 311 295 302 304 306 306 312 316 305 297 297 297 296 296 299
320 319 318 318 317 316 317 319 322 321 321 322 322 321 321 317 315 316 314 306 297 299 298 302 306 301 295 296 294 294 295 305
320 321 320 319 318 318 318 320 322 322 322 310 323 323 322 317 315 315 315 312 313 312 297 301 296 294 294 293 293 299 309 308
312 312 315 320 320 320 321 321 322 320 321 322 323 323 322 317 315 312 313 312 314 312 307 300 295 292 292 292 294 315 315 316
307 304 308 308 312 315 322 319 320 321 321 312 316 323 319 317 314 312 310 310 312 312 313 313 304 306 310 309 309 314 315 315
309 305 304 307 305 312 315 318 320 322 321 318 314 323 320 320 318 315 313 311 310 311 313 310 297 316 315 315 314 313 316 317
303 306 303 305 304 306 311 308 307 316 321 320 319 322 322 321 320 320 317 314 313 312 311 308 291 315 317 317 316 317 318 320
Wind_Speed
11 10 11 11 10 9 9 8 8 7 7 7 6 6 6 6 6 6 4 6 4 3 4 4 2 3 5 3 3 5 5 2
12 10 10 10 9 10 9 7 7 7 7 7 7 6 6 6 6 5 5 5 5 4 4 4 2 3 4 4 2 2 5 4
12 11 10 9 9 8 7 6 7 6 7 6 6 6 5 5 5 4 4 4 4 6 5 5 4 3 4 5 4 5 5 4
13 13 12 12 12 10 8 7 7 7 7 7 7 7 6 6 5 3 3 5 6 6 5 5 4 3 7 2 6 4 4 4
15 15 13 12 11 11 8 9 6 7 7 7 8 6 6 6 5 3 5 6 6 6 5 5 4 4 8 8 7 4 5 5
15 13 12 11 9 9 7 7 7 7 8 9 7 6 7 6 5 5 5 4 6 6 5 5 4 3 5 7 8 5 6 7
10 13 12 10 9 8 9 7 8 7 8 8 7 6 7 7 6 6 4 5 4 4 4 5 5 3 4 8 8 5 6 7
10 12 10 11 8 10 10 8 8 8 9 9 7 7 8 7 7 6 3 4 5 4 5 3 4 4 4 7 8 4 5 6
8 11 13 13 10 10 10 9 10 9 8 7 6 6 7 6 6 4 5 6 6 5 5 3 3 3 3 7 10 4 4 5
14 12 10 9 12 12 9 11 9 7 8 7 6 6 5 5 6 5 5 6 6 5 5 4 2 3 4 5 9 9 6 6
13 13 10 9 11 12 11 10 7 7 8 7 6 6 5 6 6 6 4 5 6 6 5 4 3 1 2 5 9 12 8 7
10 12 13 11 8 10 12 8 7 9 8 8 6 7 6 5 4 4 5 5 5 6 5 5 3 2 3 3 4 5 9 7
6 11 12 12 9 9 7 9 8 8 8 8 6 5 5 5 3 2 3 3 5 6 4 4 5 4 3 6 7 5 6 7
5 6 8 9 10 7 7 9 10 10 8 7 7 7 4 4 4 3 8 5 7 7 8 5 3 6 10 10 9 10 14 12
7 1 7 11 12 10 8 9 10 11 10 8 6 7 5 6 4 5 5 4 7 4 8 10 9 10 10 12 13 13 13 9
11 8 7 8 9 11 8 10 10 10 10 13 9 8 7 6 5 5 4 4 4 3 6 3 6 12 11 11 13 11 5 2
17 19 16 4 5 4 5 9 10 9 8 8 8 7 7 7 5 4 4 4 3 4 3 4 7 9 11 9 8 5 8 7
20 16 15 14 12 10 5 8 8 7 8 13 9 7 5 6 5 5 4 4 4 4 4 4 5 4 4 4 6 3 5 4
12 14 15 15 14 12 11 4 8 8 7 7 11 7 7 8 7 7 6 5 5 5 5 6 11 9 10 9 9 7 6 7
12 13 16 15 15 12 10 11 5 1 6 8 8 9 8 8 7 7 7 7 6 6 4 4 8 4 7 8 9 9 9 8
Wind_Direction
130 135 139 137 135 133 134 134 135 136 128 129 134 136 142 152 154 159 161 145 157 171 168 137 160 252 277 242 204 195 171 150
139 143 142 142 140 142 145 143 143 144 135 144 148 157 161 164 152 157 158 168 176 149 150 124 111 32 355 337 82 133 138 159
150 147 147 145 140 149 152 150 152 142 136 143 150 154 156 153 142 149 177 190 139 131 127 101 83 48 10 341 100 92 101 110
153 155 153 156 158 163 157 165 159 145 148 151 161 144 155 153 149 151 148 122 117 123 119 109 79 48 359 62 97 100 94 84
160 160 162 164 165 167 164 175 142 145 149 150 149 150 147 151 155 146 124 123 119 116 120 110 89 51 19 91 100 94 86 80
165 159 159 163 161 169 147 148 143 145 153 153 148 160 145 142 147 127 114 117 135 132 132 120 104 53 45 110 99 83 79 73
189 160 160 157 159 162 148 143 141 144 155 156 164 159 144 149 160 164 144 130 129 138 139 138 121 77 78 128 101 81 83 80
179 162 157 157 159 157 148 152 147 165 160 170 168 165 156 163 162 162 150 140 145 133 128 148 127 115 97 139 106 105 98 90
156 160 168 168 153 157 158 153 173 180 157 155 158 161 163 161 147 142 143 125 125 131 130 121 116 103 116 153 125 117 115 105
160 162 170 153 159 159 156 170 182 157 151 154 157 153 149 143 148 135 135 126 126 132 119 95 84 72 92 154 131 124 131 119
164 165 152 156 166 166 162 190 147 151 146 147 138 134 137 138 141 132 118 123 134 151 158 156 151 92 107 140 138 130 126 127
157 150 155 159 166 168 178 156 152 148 146 141 139 138 136 129 123 138 133 140 139 159 169 175 142 128 117 128 122 107 100 86
148 159 163 166 163 168 150 150 144 144 147 147 141 127 143 129 101 110 143 155 157 159 167 155 151 161 181 154 152 148 134 127
125 164 158 157 159 159 145 153 146 142 141 149 153 145 147 137 149 120 36 73 141 139 151 146 121 134 140 150 147 128 125 141
42 145 199 165 173 164 150 158 149 153 155 155 150 146 153 155 167 160 161 35 55 152 175 169 156 157 156 153 142 134 142 123
27 24 171 173 182 180 152 155 157 160 161 158 164 165 166 163 171 181 160 162 179 167 56 110 167 150 147 137 134 118 141 119
30 34 29 62 152 132 149 156 156 160 157 167 168 170 171 172 163 169 176 168 168 135 115 80 78 89 102 112 172 155 177 188
43 27 20 25 24 348 193 156 151 163 171 171 166 168 154 159 158 165 171 178 162 164 170 151 130 115 156 164 199 191 181 189
44 38 20 21 7 353 19 15 168 173 170 172 178 166 166 176 176 180 183 168 178 178 196 173 174 171 180 185 192 209 207 209
29 34 21 1 0 350 5 14 359 247 174 172 177 187 181 176 185 183 177 183 185 190 191 162 169 204 181 192 199 207 212 210